Regional Weather Roundup
Issued by NWS

Home | Current Version | Previous Version | Text Only | Print | Product List | Glossary Off
Versions: 1 2 3 4 5 6 7 8 9 10 11 12 13 14 15 16 17 18 19 20 21 22 23 24 25 26 27

000
ASUS45 KBOI 222310
RWRID
WEATHER ROUNDUP FOR IDAHO
NATIONAL WEATHER SERVICE BOISE ID
500 PM MDT WED OCT 22 2014

NOTE: "FAIR" INDICATES FEW OR NO CLOUDS BELOW 12000 FEET
WITH NO SIGNIFICANT WEATHER AND/OR OBSTRUCTIONS TO VISIBILITY

IDZ012-014-230000-
SOUTHWEST IDAHO


CITY           SKY/WX    TMP DP  RH WIND       PRES   REMARKS
BOISE          CLOUDY    62  29  28 SE17G24   30.04F
CALDWELL       CLOUDY    61  36  39 S15       30.04R
MOUNTAIN HOME  PTSUNNY   61  35  37 E17       30.06F
$$

IDZ016-017-230000-
SOUTHCENTRAL IDAHO


CITY           SKY/WX    TMP DP  RH WIND       PRES   REMARKS
BURLEY         PTSUNNY   60  30  32 N7        30.11F
JEROME         PTSUNNY   59  26  28 N7        30.12S
TWIN FALLS     PTSUNNY   61  29  29 N6        30.12R
$$

IDZ019>023-230000-
SOUTHEAST IDAHO


CITY           SKY/WX    TMP DP  RH WIND       PRES   REMARKS
IDAHO FALLS    PTSUNNY   56  26  31 SW8       30.16F
POCATELLO      SUNNY     59  27  29 NW3       30.15F
REXBURG        PTSUNNY   53  23  31 SW10      30.17S
$$

IDZ006-010-011-018-031-032-230000-
CENTRAL IDAHO MOUNTAINS


CITY           SKY/WX    TMP DP  RH WIND       PRES   REMARKS
MCCALL         PTSUNNY   50  32  50 S14       30.05F
HAILEY         PTSUNNY   52  30  43 SE7       30.17S
STANLEY          N/A     48  27  44 SE6       30.13S
SALMON         SUNNY    N/A N/A N/A MISG        N/A
CHALLIS        MOSUNNY   56  28  34 S6        30.07F
$$

IDZ002-004-006-007-026-230000-
NORTHERN IDAHO


CITY           SKY/WX    TMP DP  RH WIND       PRES   REMARKS
LEWISTON       PTSUNNY   66  41  40 E8        29.82F
LOWELL           N/A     57  52  83 N3        29.92S
COEUR D`ALENE  CLOUDY    57  39  51 S7        29.84F
MULLAN PASS    CLOUDY    42  34  73 VRB7      29.94F
$$



USA.gov is the U.S. government's official web portal to all federal, state and local government web resources and services.